CW7944 Weather Reports


Display with metric or nautical units.
time (UTC)temp
F
wind
direction
speed
MPH
gust
MPH
rain 1hr
in
rain 24hr
in
rain mn
in
humidity
%
barometer
mb
20210620154511 74 85 2.0 0.0 0.00 0.00 0.00 37 999.4
20210620153121 74 91 3.0 0.0 0.00 0.00 0.00 35 999.3
20210620151614 73 90 2.0 0.0 0.00 0.00 0.00 39 999.4
20210620150120 73 101 2.0 0.0 0.00 0.00 0.00 38 999.4
20210620144613 72 39 1.0 0.0 0.00 0.00 0.00 36 999.4
20210620143050 71 120 0.0 0.0 0.00 0.00 0.00 41 999.4
20210620141624 70 30 1.0 0.0 0.00 0.00 0.00 42 999.5
20210620134549 66 30 0.0 0.0 0.00 0.00 0.00 48 999.9
20210620133049 66 30 0.0 0.0 0.00 0.00 0.00 53 999.5
20210620131550 67 30 0.0 0.0 0.00 0.00 0.00 50 998.7
20210620130021 69 30 0.0 0.0 0.00 0.00 0.00 47 998.3
20210620124550 71 22 0.0 0.0 0.00 0.00 0.00 42 997.7
20210620123018 73 28 0.0 0.0 0.00 0.00 0.00 29 996.7
20210620121513 74 321 0.0 0.0 0.00 0.00 0.00 28 995.7
20210620120020 73 320 0.0 0.0 0.00 0.00 0.00 28 995.9
20210620114521 73 257 0.0 0.0 0.00 0.00 0.00 27 995.9
20210620113010 73 260 0.0 0.0 0.00 0.00 0.00 27 995.7
20210620111511 73 267 0.0 0.0 0.00 0.00 0.00 27 995.4
20210620110017 73 249 0.0 0.0 0.00 0.00 0.00 26 995.6
20210620104505 74 276 0.0 0.0 0.00 0.00 0.00 26 995.6
20210620103003 74 235 0.0 0.0 0.00 0.00 0.00 26 995.6
20210620101534 74 317 0.0 0.0 0.00 0.00 0.00 26 995.6
20210620100002 74 332 0.0 0.0 0.00 0.00 0.00 26 993.9
20210620094503 74 309 0.0 0.0 0.00 0.00 0.00 26 994.0
20210620093002 74 323 0.0 0.0 0.00 0.00 0.00 27 994.0
20210620091501 74 329 0.0 0.0 0.00 0.00 0.00 27 994.1
20210620090007 74 277 0.0 0.0 0.00 0.00 0.00 27 993.9
20210620083208 75 21 0.0 0.0 0.00 0.00 0.00 26 993.9
20210620081825 75 307 0.0 0.0 0.00 0.00 0.00 26 994.0
20210620080249 75 340 0.0 0.0 0.00 0.00 0.00 26 993.4
20210620074637 75 267 0.0 0.0 0.00 0.00 0.00 26 993.6
20210620073227 75 290 0.0 0.0 0.00 0.00 0.00 26 993.4
20210620071653 75 298 0.0 0.0 0.00 0.00 0.00 26 993.2
20210620070216 76 265 0.0 0.0 0.00 0.00 0.00 26 993.5
20210620064643 76 298 0.0 0.0 0.00 0.00 0.00 26 993.3
20210620063131 76 265 0.0 0.0 0.00 0.00 0.00 25 993.1
20210620061641 76 293 0.0 0.0 0.00 0.00 0.00 25 992.8
20210620060110 76 173 0.0 0.0 0.00 0.00 0.00 26 993.3
20210620054702 75 268 0.0 0.0 0.00 0.00 0.00 27 993.4
20210620053133 74 243 0.0 0.0 0.00 0.00 0.00 28 993.2
20210620051636 73 302 0.0 0.0 0.00 0.00 0.00 30 993.7
20210620050057 72 327 0.0 0.0 0.00 0.00 0.00 30 994.8
20210620044558 72 220 0.0 0.0 0.00 0.00 0.00 31 994.9
20210620043200 73 229 0.0 0.0 0.00 0.00 0.00 29 995.2
20210620041612 74 229 0.0 0.0 0.00 0.00 0.00 28 994.8
20210620040053 74 249 0.0 0.0 0.00 0.00 0.00 28 995.8
20210620034607 74 239 0.0 0.0 0.00 0.00 0.00 28 995.6
20210620033114 75 217 0.0 0.0 0.00 0.00 0.00 29 995.1
20210620031600 75 275 0.0 0.0 0.00 0.00 0.00 30 994.9
20210620030124 75 215 0.0 0.0 0.00 0.00 0.00 29 995.4
20210620024546 75 217 0.0 0.0 0.00 0.00 0.00 30 995.6
20210620023119 76 257 0.0 0.0 0.00 0.00 0.00 31 994.9
20210620021626 75 197 0.0 0.0 0.00 0.00 0.00 31 994.9
20210620020059 76 315 0.0 0.0 0.00 0.00 0.00 31 995.6
20210620014644 76 315 0.0 0.0 0.00 0.00 0.00 31 995.8
20210620013100 77 308 0.0 0.0 0.00 0.00 0.00 31 996.4
20210620011559 77 286 0.0 0.0 0.00 0.00 0.00 31 996.4
20210620010149 77 344 0.0 0.0 0.00 0.00 0.00 32 997.0
20210620004634 76 273 0.0 0.0 0.00 0.00 0.00 33 997.0
20210620003110 76 207 0.0 0.0 0.00 0.00 0.00 31 997.0
20210620001533 74 333 4.0 0.0 0.00 0.00 0.00 35 996.7
20210620000028 74 335 3.0 0.0 0.00 0.00 0.00 40 998.5
20210619234551 72 107 0.0 0.0 0.00 0.00 0.00 55 999.1
20210619233046 72 107 0.0 0.0 0.00 0.00 0.00 61 999.2
20210619231541 73 106 0.0 0.0 0.00 0.00 0.00 63 999.4
20210619230057 73 107 0.0 0.0 0.00 0.00 0.00 62 999.4
20210619224554 74 105 0.0 0.0 0.00 0.00 0.00 60 999.4
20210619223029 76 105 0.0 0.0 0.00 0.00 0.00 61 998.8
20210619221522 77 94 0.0 0.0 0.00 0.00 0.00 48 999.3
20210619220027 79 221 0.0 0.0 0.00 0.00 0.00 45 998.4
20210619214540 80 44 0.0 0.0 0.00 0.00 0.00 45 997.8
20210619213105 80 47 0.0 0.0 0.00 0.00 0.00 41 998.2
20210619211556 79 5 0.0 0.0 0.00 0.00 0.00 38 999.0
20210619210103 80 22 0.0 0.0 0.00 0.00 0.00 34 998.1
20210619204521 83 9 2.0 0.0 0.00 0.00 0.00 43 997.1
20210619203033 85 51 3.0 0.0 0.00 0.00 0.00 44 996.4
20210619201531 85 38 3.0 0.0 0.00 0.00 0.00 44 996.3
20210619200042 84 51 3.0 0.0 0.00 0.00 0.00 43 996.3
20210619194513 84 101 0.0 0.0 0.00 0.00 0.00 45 996.2
20210619193027 83 107 1.0 0.0 0.00 0.00 0.00 43 996.7
20210619191513 83 114 0.0 0.0 0.00 0.00 0.00 43 997.0
20210619190032 83 113 0.0 0.0 0.00 0.00 0.00 47 996.7
20210619184534 82 111 1.0 0.0 0.00 0.00 0.00 47 996.7
20210619183006 82 130 1.0 0.0 0.00 0.00 0.00 47 997.0
20210619181655 81 98 1.0 0.0 0.00 0.00 0.00 50 997.6
20210619180217 81 83 1.0 0.0 0.00 0.00 0.00 52 997.8
20210619174732 81 84 1.0 0.0 0.00 0.00 0.00 51 997.9
20210619173412 81 59 1.0 0.0 0.00 0.00 0.00 48 998.2
20210619171641 80 41 1.0 0.0 0.00 0.00 0.00 47 998.4
20210619170056 79 66 2.0 0.0 0.00 0.00 0.00 51 997.6
20210619164712 78 18 0.0 0.0 0.00 0.00 0.00 51 998.3
20210619163114 77 27 1.0 0.0 0.00 0.00 0.00 56 998.6
20210619161541 75 26 1.0 0.0 0.00 0.00 0.00 53 998.8
20210619160111 73 9 1.0 0.0 0.00 0.00 0.00 53 999.7